TimeMDT,TemperatureF,Dew PointF,Humidity,Sea Level PressureIn,VisibilityMPH,Wind Direction,Wind SpeedMPH,Gust SpeedMPH,PrecipitationIn,Events,Conditions,WindDirDegrees,DateUTC
12:05 AM,30.2,-4.0,23,30.32,10.0,SW,19.6,-,N/A,,Clear,230,2012-10-08 06:05:00
12:24 AM,30.2,-4.0,23,30.33,10.0,SW,17.3,-,N/A,,Clear,230,2012-10-08 06:24:00
12:44 AM,28.4,-5.8,23,30.33,10.0,SW,13.8,-,N/A,,Clear,230,2012-10-08 06:44:00
1:05 AM,28.4,-5.8,23,30.33,10.0,SW,11.5,-,N/A,,Clear,220,2012-10-08 07:05:00
1:26 AM,28.4,-5.8,23,30.33,10.0,SW,10.4,-,N/A,,Clear,220,2012-10-08 07:26:00
1:44 AM,28.4,-4.0,25,30.33,10.0,WSW,13.8,-,N/A,,Clear,240,2012-10-08 07:44:00
2:03 AM,30.2,-4.0,23,30.33,10.0,SW,12.7,-,N/A,,Clear,230,2012-10-08 08:03:00
2:23 AM,30.2,-4.0,23,30.33,10.0,SW,12.7,-,N/A,,Clear,220,2012-10-08 08:23:00
2:44 AM,28.4,-4.0,25,30.33,10.0,SW,13.8,-,N/A,,Clear,230,2012-10-08 08:44:00
3:04 AM,30.2,-4.0,23,30.32,10.0,SW,13.8,-,N/A,,Clear,230,2012-10-08 09:04:00
3:23 AM,28.4,-5.8,23,30.32,10.0,SW,13.8,-,N/A,,Clear,220,2012-10-08 09:23:00
3:45 AM,28.4,-5.8,23,30.32,10.0,SW,13.8,-,N/A,,Clear,220,2012-10-08 09:45:00
4:03 AM,28.4,-5.8,23,30.31,10.0,SW,13.8,-,N/A,,Clear,220,2012-10-08 10:03:00
4:24 AM,28.4,-5.8,23,30.32,10.0,SW,11.5,-,N/A,,Clear,220,2012-10-08 10:24:00
4:43 AM,28.4,-5.8,23,30.32,10.0,SW,11.5,-,N/A,,Clear,230,2012-10-08 10:43:00
5:03 AM,28.4,-5.8,23,30.32,10.0,SSW,12.7,-,N/A,,Clear,210,2012-10-08 11:03:00
5:23 AM,28.4,-5.8,23,30.32,10.0,SSW,10.4,-,N/A,,Clear,210,2012-10-08 11:23:00
5:44 AM,28.4,-5.8,23,30.32,10.0,SSW,12.7,-,N/A,,Clear,210,2012-10-08 11:44:00
6:04 AM,28.4,-5.8,23,30.32,10.0,SSW,11.5,-,N/A,,Clear,210,2012-10-08 12:04:00
6:24 AM,28.4,-5.8,23,30.32,10.0,SSW,10.4,-,N/A,,Clear,210,2012-10-08 12:24:00
6:43 AM,28.4,-5.8,23,30.32,10.0,SSW,11.5,-,N/A,,Clear,210,2012-10-08 12:43:00
7:03 AM,28.4,-5.8,23,30.32,10.0,SSW,12.7,-,N/A,,Clear,210,2012-10-08 13:03:00
7:24 AM,28.4,-7.6,21,30.32,10.0,SSW,10.4,-,N/A,,Clear,210,2012-10-08 13:24:00
7:42 AM,28.4,-7.6,21,30.33,10.0,SSW,11.5,-,N/A,,Clear,210,2012-10-08 13:42:00
8:03 AM,30.2,-7.6,19,30.33,10.0,SSW,11.5,-,N/A,,Clear,210,2012-10-08 14:03:00
8:23 AM,30.2,-9.4,18,30.34,10.0,SSW,10.4,-,N/A,,Clear,210,2012-10-08 14:23:00
8:45 AM,32.0,-7.6,18,30.34,10.0,SSW,9.2,-,N/A,,Clear,210,2012-10-08 14:45:00
9:04 AM,32.0,-9.4,17,30.35,10.0,SSW,8.1,-,N/A,,Clear,210,2012-10-08 15:04:00
9:26 AM,32.0,-7.6,18,30.35,10.0,SSW,8.1,-,N/A,,Clear,200,2012-10-08 15:26:00
9:46 AM,33.8,-7.6,17,30.35,10.0,SSW,8.1,-,N/A,,Clear,210,2012-10-08 15:46:00
10:06 AM,33.8,-5.8,18,30.35,10.0,SSW,8.1,-,N/A,,Clear,210,2012-10-08 16:06:00
10:26 AM,33.8,-5.8,18,30.35,10.0,SSW,8.1,-,N/A,,Clear,200,2012-10-08 16:26:00
10:45 AM,35.6,-2.2,20,30.34,10.0,SSW,10.4,18.4,N/A,,Clear,210,2012-10-08 16:45:00
11:05 AM,33.8,-0.4,23,30.34,10.0,SSW,15.0,20.7,N/A,,Clear,210,2012-10-08 17:05:00
11:25 AM,35.6,1.4,24,30.34,10.0,SSW,10.4,20.7,N/A,,Clear,210,2012-10-08 17:25:00
11:45 AM,33.8,1.4,25,30.34,10.0,SSW,10.4,18.4,N/A,,Clear,210,2012-10-08 17:45:00
12:04 PM,37.4,3.2,24,30.34,10.0,SSW,10.4,20.7,N/A,,Clear,210,2012-10-08 18:04:00
12:25 PM,37.4,3.2,24,30.34,10.0,SSW,8.1,20.7,N/A,,Clear,200,2012-10-08 18:25:00
12:45 PM,37.4,5.0,26,30.34,10.0,South,9.2,24.2,N/A,,Clear,190,2012-10-08 18:45:00
1:04 PM,35.6,5.0,28,30.34,10.0,SSW,12.7,23.0,N/A,,Clear,210,2012-10-08 19:04:00
1:24 PM,41.0,6.8,24,30.33,10.0,SSW,15.0,21.9,N/A,,Scattered Clouds,210,2012-10-08 19:24:00
1:43 PM,37.4,5.0,26,30.32,10.0,South,11.5,21.9,N/A,,Clear,190,2012-10-08 19:43:00
2:04 PM,35.6,5.0,28,30.32,10.0,SW,13.8,23.0,N/A,,Scattered Clouds,230,2012-10-08 20:04:00
2:24 PM,37.4,6.8,28,30.31,10.0,SSW,11.5,20.7,N/A,,Scattered Clouds,210,2012-10-08 20:24:00
2:44 PM,39.2,6.8,26,30.31,10.0,SSW,15.0,26.5,N/A,,Clear,210,2012-10-08 20:44:00
3:01 PM,41.0,8.6,26,30.31,10.0,SSW,11.5,26.5,N/A,,Clear,210,2012-10-08 21:01:00
3:25 PM,41.0,6.8,24,30.31,10.0,SSW,15.0,28.8,N/A,,Clear,210,2012-10-08 21:25:00
3:43 PM,41.0,6.8,24,30.31,10.0,SSW,13.8,27.6,N/A,,Clear,200,2012-10-08 21:43:00
4:02 PM,41.0,6.8,24,30.31,10.0,SSW,11.5,28.8,N/A,,Clear,210,2012-10-08 22:02:00
4:24 PM,41.0,6.8,24,30.30,10.0,WSW,19.6,27.6,N/A,,Clear,240,2012-10-08 22:24:00
4:41 PM,41.0,8.6,26,30.30,10.0,SW,17.3,31.1,N/A,,Clear,230,2012-10-08 22:41:00
5:01 PM,41.0,8.6,26,30.30,10.0,SW,18.4,27.6,N/A,,Clear,230,2012-10-08 23:01:00
5:20 PM,41.0,8.6,26,30.29,10.0,SW,18.4,34.5,N/A,,Clear,230,2012-10-08 23:20:00
5:40 PM,39.2,10.4,31,30.29,10.0,SSW,17.3,32.2,N/A,,Clear,210,2012-10-08 23:40:00
6:04 PM,35.6,10.4,35,30.30,10.0,SW,18.4,32.2,N/A,,Clear,220,2012-10-09 00:04:00
6:24 PM,35.6,12.2,38,30.30,10.0,SW,20.7,29.9,N/A,,Clear,230,2012-10-09 00:24:00
6:44 PM,35.6,12.2,38,30.31,10.0,SW,20.7,33.4,N/A,,Clear,230,2012-10-09 00:44:00
7:23 PM,33.8,12.2,41,30.32,10.0,SW,20.7,31.1,N/A,,Clear,220,2012-10-09 01:23:00
7:45 PM,33.8,12.2,41,30.32,10.0,SW,18.4,27.6,N/A,,Clear,220,2012-10-09 01:45:00
8:02 PM,33.8,12.2,41,30.33,10.0,SW,19.6,24.2,N/A,,Clear,220,2012-10-09 02:02:00
8:23 PM,32.0,14.0,48,30.33,10.0,SW,15.0,19.6,N/A,,Clear,220,2012-10-09 02:23:00
8:43 PM,32.0,14.0,48,30.33,10.0,SW,17.3,21.9,N/A,,Clear,220,2012-10-09 02:43:00
9:04 PM,32.0,14.0,48,30.33,10.0,SW,13.8,21.9,N/A,,Clear,220,2012-10-09 03:04:00
9:44 PM,32.0,14.0,48,30.34,10.0,SW,15.0,19.6,N/A,,Clear,220,2012-10-09 03:44:00
10:23 PM,32.0,14.0,48,30.34,10.0,SW,17.3,-,N/A,,Clear,220,2012-10-09 04:23:00
10:45 PM,32.0,12.2,44,30.34,10.0,SW,16.1,-,N/A,,Clear,230,2012-10-09 04:45:00
11:04 PM,32.0,14.0,48,30.34,10.0,SW,12.7,-,N/A,,Clear,220,2012-10-09 05:04:00
11:25 PM,32.0,12.2,44,30.33,10.0,SW,15.0,-,N/A,,Clear,230,2012-10-09 05:25:00
11:44 PM,32.0,8.6,38,30.33,10.0,SW,17.3,23.0,N/A,,Clear,230,2012-10-09 05:44:00